User: anonymous   Login
Location: ????????
(56.0167°N, 38.0333°E)
Time: 11:57:24
(UTC+00:00)
Language:

Cosmos 1805 Rocket - Orbit

View from above orbital plane
View from above orbital plane
View from above satellite
View from above satellite

Ground track
Ground track

The orbit data is extracted from the following two-line orbital elements,

1 17192U 86097B   25193.92181145  .00000346  00000-0  37048-4 0  9990
2 17192  82.5059   7.9837 0017844  97.4508  64.4246 14.85602286 64741
Epoch (UTC): 12 July 2025 22:07:24
Eccentricity: 0.0017844
inclination: 82.5059°
perigee height: 599 km
apogee height: 624 km
right ascension of ascending node: 7.9837°
argument of perigee: 97.4508°
revolutions per day: 14.85602286
mean anomaly at epoch: 64.4246°
orbit number at epoch: 6474

The dashed part of the orbit path shows where the satellite is in the earth's shadow,  

DLR